Home   Weather   Küssnacht   Past weeks

Flag for Switzerland Past Weather in Küssnacht, Schwyz, Switzerland — Yesterday and Last 2 Weeks

Now
28 °F

Overcast.


Feels Like: 22 °F
Forecast: 32 / 36 °F
Wind: 6 mph from Southeast

Location: Altdorf

Current Time: Dec 10, 2016 at 2:19:14 am

Latest Report: Dec 10, 2016 at 1:00 am


Visibility: 9 mi

Pressure: 30.52 "Hg

Humidity: 89%

Dew Point: 25 °F

Location of KüssnachtLocation

Past Weather in Küssnacht — Graph

°F

Küssnacht Temperature Yesterday

Maximum temperature yesterday: 42 °F (at 1:00 pm)
Minimum temperature yesterday: 25 °F (at 8:00 am)
Average temperature yesterday: 33 °F

High & Low Weather Summary for the Past Weeks

 TemperatureHumidityPressure
High48 °F (Nov 26, 2:00 pm)100% (Dec 5, 7:00 am)30.71 "Hg (Dec 5, 7:00 am)
Low20 °F (Dec 4, 5:00 am)63% (Nov 28, 8:00 pm)29.82 "Hg (Nov 25, 6:00 am)
Average35 °F86%30.34 "Hg
* Reported Nov 25 1:00 am — Dec 10 1:00 am, Küssnacht, Weather by CustomWeather, © 2016

Note: Actual official high and low records may vary slightly from our data, if they occured in-between our weather recording intervals... More about our weather records

Advertising

Küssnacht Weather History for the Previous 24 Hours

Scroll right to see more
 ConditionsComfort  
Time TempWeatherWind HumidityBarometerVisibility
1:00 am
Sat, Dec 10
28 °FOvercast.6 mph89%30.52 "Hg9 mi
12:00 am28 °FChilly.2 mph94%30.53 "HgN/A
11:00 pm
Fri, Dec 9
29 °FChilly.2 mph90%30.52 "HgN/A
10:00 pm31 °FChilly.1 mph90%30.53 "HgN/A
9:00 pm31 °FChilly.2 mph90%30.54 "HgN/A
8:00 pm33 °FChilly.2 mph88%30.54 "HgN/A
7:00 pm33 °FPassing clouds.2 mph88%30.55 "Hg9 mi
6:00 pm34 °FChilly.2 mph89%30.55 "HgN/A
5:00 pm34 °FChilly.2 mph88%30.55 "HgN/A
4:00 pm38 °FOvercast.1 mph84%30.53 "Hg9 mi
3:00 pm40 °FQuite cool.1 mph82%30.53 "HgN/A
2:00 pm40 °FQuite cool.1 mph80%30.55 "HgN/A
1:00 pm42 °FOvercast.2 mph78%30.55 "Hg9 mi
12:00 pm40 °FChilly.No wind77%30.57 "HgN/A
11:00 am37 °FChilly.1 mph76%30.60 "HgN/A
10:00 am28 °FPartly sunny.2 mph90%30.63 "Hg14 mi
9:00 am26 °FChilly.3 mph89%30.63 "HgN/A
8:00 am25 °FCold.3 mph92%30.64 "HgN/A
7:00 am25 °FClear.2 mph91%30.63 "Hg16 mi
Weather by CustomWeather, © 2016

See weather overviewHow to use our weather pages